This is the latest recevied weather packets stored in our database for station/object N9OJR. If no packets are shown the sender has not sent any weather packets the latest 10 day(s).
| Time | Temp. | Humidity | Pressure | Rain* | Wind** | Luminosity | Snow |
|---|---|---|---|---|---|---|---|
| 1777243821 | 16.67° C | 67% | 1016 hPa | 0 mm | - | 96 W/m² | - |
| 1777243517 | 16.67° C | 67% | 1015.8 hPa | 0 mm | - | 109 W/m² | - |
| 1777243212 | 16.67° C | 68% | 1015.6 hPa | 0 mm | - | 129 W/m² | - |
| 1777242908 | 16.67° C | 69% | 1015.7 hPa | 0 mm | - | 133 W/m² | - |
| 1777242606 | 16.67° C | 68% | 1015.8 hPa | 0 mm | - | 56 W/m² | - |
| 1777242301 | 16.67° C | 68% | 1015.7 hPa | 0 mm | - | 133 W/m² | - |
| 1777241999 | 16.67° C | 67% | 1015.9 hPa | 0 mm | - | 48 W/m² | - |
| 1777241696 | 16.11° C | 69% | 1015.8 hPa | 0 mm | - | 48 W/m² | - |
| 1777241393 | 16.67° C | 69% | 1015.7 hPa | 0 mm | - | 48 W/m² | - |
| 1777241091 | 16.11° C | 70% | 1015.7 hPa | 0 mm | - | 49 W/m² | - |
| 1777240789 | 16.11° C | 69% | 1015.7 hPa | 0 mm | - | 49 W/m² | - |
| 1777240487 | 16.11° C | 69% | 1015.7 hPa | 0 mm | - | 50 W/m² | - |
| 1777240183 | 16.67° C | 70% | 1015.4 hPa | 0 mm | - | 50 W/m² | - |
| 1777239881 | 16.11° C | 71% | 1015.6 hPa | 0 mm | - | 52 W/m² | - |
| 1777239578 | 16.11° C | 70% | 1015.5 hPa | 0 mm | - | 54 W/m² | - |
| 1777239274 | 16.11° C | 69% | 1015.5 hPa | 0 mm | - | 304 W/m² | - |
| 1777238972 | 16.11° C | 70% | 1015.4 hPa | 0 mm | - | 351 W/m² | - |
| 1777238669 | 16.11° C | 71% | 1015.4 hPa | 0 mm | - | 371 W/m² | - |
| 1777238365 | 16.11° C | 70% | 1015.7 hPa | 0 mm | - | 384 W/m² | - |
| 1777238062 | 16.11° C | 69% | 1015.4 hPa | 0 mm | - | 387 W/m² | - |
| 1777237758 | 16.11° C | 69% | 1015.5 hPa | 0 mm | - | 409 W/m² | - |
| 1777237456 | 16.11° C | 69% | 1015.4 hPa | 0 mm | - | 427 W/m² | - |
| 1777237153 | 16.67° C | 70% | 1015.6 hPa | 0 mm | - | 443 W/m² | - |
| 1777236850 | 16.11° C | 70% | 1015.5 hPa | 0 mm | - | 448 W/m² | - |
| 1777236551 | 16.11° C | 71% | 1015.6 hPa | 0 mm | - | 471 W/m² | - |
* Rain latest hour (hover to see other rain measurements)
** Current wind speed in m/s (hover to see current wind gust speed)